Probability
0 0 0 0 0 0 0 0 0 0 0 0 0 0 0 0 0 0 0 0 0 0 0 0 0 0 0 0 0 0 0 0 0 0 0 0 0 0 0 0 0 1 1
0 0 0 0 0 0 0 0 0 0 0 0 0 0 0 0 0 0 0 0 0 0 0 0 0 0 0 0 0 0 0 0 0 0 0 0 0 0 0 0 0 0 1
0 0 0 0 0 0 0 0 0 0 0 1 1 1 1 1 0 0 0 0 0 0 0 0 0 0 0 0 0 0 0 0 0 0 0 0 0 0 0 0 0 0 0
0 0 1 1 1 0 0 0 0 1 1 2 2 2 2 2 1 0 0 0 0 0 0 0 0 0 0 0 0 0 0 0 0 0 0 0 0 0 0 0 0 0 0
0 1 2 2 1 0 0 0 1 2 3 3 3 3 3 2 1 0 0 0 0 0 0 0 0 0 0 0 0 0 0 0 0 0 0 0 0 0 0 0 0 0 0
0 1 2 3 2 1 1 1 2 3 3 3 3 3 2 2 1 0 0 0 0 0 0 0 0 0 0 0 0 0 0 0 0 0 0 0 0 0 0 0 0 0 0
0 1 2 3 4 3 3 3 3 3 3 2 2 1 1 1 0 0 0 0 0 0 0 0 0 0 0 0 0 0 0 0 0 0 0 0 0 0 0 0 0 0 0
0 1 2 3 5 5 4 3 3 2 1 1 1 0 0 0 0 0 0 0 0 0 0 0 0 0 0 0 0 0 0 0 0 0 0 0 0 0 0 0 0 0 0
0 0 1 2 4 5 5 3 2 1 0 0 0 0 0 0 0 0 0 0 0 0 0 0 0 0 0 0 0 0 0 0 0 0 0 0 0 0 0 0 0 0 0
0 0 0 0 2 3 4 3 1 0 0 0 0 0 0 0 0 0 0 0 0 0 0 0 0 0 0 0 0 0 0 0 0 0 0 0 0 0 0 0 0 0 0
0 0 0 0 0 1 2 2 1 0 0 0 0 0 0 0 0 0 0 0 0 0 0 0 0 0 0 0 0 0 0 0 0 0 0 0 0 0 0 0 0 0 0
0 0 0 0 0 1 2 2 1 1 1 0 0 0 0 0 0 0 0 0 0 0 1 1 1 0 0 0 0 0 0 0 0 0 0 0 0 0 0 0 0 0 0
0 0 0 0 1 2 3 3 2 1 1 0 0 0 0 0 0 0 0 0 0 0 1 2 2 1 0 0 0 0 0 0 0 0 0 0 0 0 0 0 0 0 0
0 0 0 0 2 3 3 3 3 2 1 1 0 0 0 0 0 0 0 0 0 0 1 3 2 1 0 0 0 0 0 0 0 0 0 0 0 0 0 0 0 0 0
0 0 0 0 1 2 3 3 3 3 3 2 1 0 0 0 0 0 0 0 0 0 1 2 3 1 0 0 0 0 0 0 0 0 0 0 0 0 0 0 0 0 0
0 0 0 0 0 1 2 2 2 3 3 3 1 0 0 0 0 0 0 0 0 0 1 2 3 2 0 0 0 0 0 0 0 0 0 0 0 0 0 0 0 0 0
0 0 1 1 0 0 1 1 1 1 2 3 2 1 0 0 0 0 0 0 0 0 1 2 2 1 0 0 0 0 0 0 0 0 0 0 0 0 0 0 0 0 0
0 1 2 2 1 1 1 0 0 0 1 2 2 1 1 1 1 0 0 0 0 0 0 1 1 0 0 0 0 0 0 0 0 0 0 0 0 0 0 0 0 0 0
0 1 2 3 3 2 2 1 0 0 0 1 1 1 1 2 2 1 0 0 0 0 0 0 0 0 0 0 0 0 0 0 0 0 0 0 0 0 0 0 0 0 0
0 1 2 3 3 3 2 1 0 0 0 0 0 0 1 2 2 1 0 0 0 0 0 0 0 0 0 0 0 0 0 0 0 0 0 0 0 0 0 0 0 0 0
0 1 2 3 3 3 2 1 0 0 0 0 0 0 0 1 1 0 0 0 0 0 0 0 0 0 0 0 0 0 0 0 0 0 0 0 0 0 0 0 0 0 0
0 1 2 3 3 3 2 1 0 0 0 0 0 0 0 0 0 0 0 0 0 0 0 0 0 0 0 0 0 0 0 0 0 0 0 0 0 0 0 0 0 0 0
0 0 1 2 2 1 1 0 0 0 0 0 0 0 0 0 0 0 0 0 0 0 0 0 0 0 0 0 0 0 0 0 0 0 0 0 0 0 0 0 0 0 0
0 0 0 1 1 0 0 0 0 0 0 0 0 0 0 0 0 0 0 0 0 0 0 0 0 0 0 0 0 0 0 0 0 0 0 0 0 0 0 0 0 0 0
0 0 0 0 0 0 0 0 0 0 0 0 0 0 0 0 0 0 0 0 0 0 0 0 0 0 0 0 0 0 0 0 0 0 0 0 0 0 0 0 0 0 0
0 0 0 0 0 0 0 0 0 0 0 0 0 0 0 0 0 0 0 0 0 0 0 0 0 0 0 0 0 0 0 0 0 0 0 0 0 0 0 0 0 0 0
Wind_Speed
5 5 5 5 5 5 5 5 5 4 4 2 2 2 2 1 1 1 2 2 3 3 4 3 2 3 2 2 2 2 2 2 2 2 3 3 3 3 2 2 2 3 2
4 4 4 5 5 5 5 5 5 4 4 3 2 2 2 1 1 1 1 2 3 3 3 3 2 2 2 2 2 2 1 1 2 2 2 2 4 4 3 2 2 2 2
8 6 5 5 5 5 5 5 5 5 4 4 3 3 2 2 1 1 1 0 2 3 3 3 2 2 2 1 1 2 2 1 1 1 2 2 1 2 3 3 3 3 2
7 7 7 6 6 6 5 5 5 5 5 5 5 4 3 2 1 1 1 1 1 2 2 3 2 2 2 1 1 1 1 2 1 1 1 1 3 2 2 3 3 3 2
8 8 9 9 7 6 5 5 5 5 5 5 5 5 3 2 1 1 1 1 1 1 2 2 2 1 1 1 1 1 1 1 1 1 0 1 1 1 2 1 3 3 2
7 6 7 6 5 4 4 4 5 4 4 5 5 5 5 3 3 1 2 1 0 0 1 2 2 2 1 2 1 1 1 1 1 1 1 1 1 1 2 1 1 2 3
7 6 6 6 6 6 5 5 6 4 4 5 4 5 5 5 5 3 3 2 1 1 2 2 2 2 2 2 2 1 1 1 1 1 1 1 1 2 2 2 1 1 2
6 7 8 7 7 7 6 6 6 4 4 5 4 4 4 3 3 3 3 3 2 2 2 2 2 2 2 2 1 1 1 1 1 1 1 1 1 1 2 2 2 0 2
7 7 7 7 7 7 7 7 7 5 5 4 4 4 4 3 3 3 2 2 2 2 2 2 2 2 2 2 2 1 1 1 1 1 1 1 1 1 1 2 2 3 1
6 6 6 6 6 7 6 6 6 7 5 5 4 4 4 4 3 3 3 3 3 2 2 2 2 2 2 1 2 1 1 1 1 1 1 1 1 1 1 1 1 2 3
6 6 6 6 6 5 6 5 5 5 4 5 4 4 3 3 3 3 4 4 3 3 3 3 2 2 2 2 2 2 2 2 1 1 1 2 1 1 1 1 1 1 2
6 5 5 5 4 5 5 5 5 5 6 5 5 4 4 3 3 3 4 3 3 3 3 2 2 2 2 2 3 3 2 2 2 2 1 2 1 1 1 1 1 1 2
4 4 4 4 5 5 5 5 5 5 5 5 5 4 4 4 4 4 4 3 3 3 2 2 3 3 3 3 3 3 3 3 3 3 2 2 1 2 1 1 1 1 1
3 3 3 3 3 4 4 5 4 4 4 4 5 5 5 5 5 4 3 3 3 3 3 3 3 3 3 3 3 2 2 2 2 2 2 2 3 3 3 2 2 1 1
2 3 3 3 2 2 2 3 3 3 4 4 4 5 4 4 3 3 3 3 3 3 3 3 3 2 2 3 2 3 2 2 2 2 2 3 3 3 2 2 2 2 1
4 3 3 3 3 3 3 3 3 4 4 4 5 5 4 4 4 3 3 2 2 2 2 2 3 3 3 3 3 3 2 2 3 3 3 3 3 3 4 4 2 2 2
4 4 4 4 4 4 4 4 4 3 3 4 4 4 4 4 4 3 3 2 2 2 2 3 2 3 3 3 3 3 2 2 3 3 3 2 2 2 2 4 4 4 4
3 2 2 2 2 3 3 3 2 2 3 3 3 3 3 3 3 3 3 2 2 2 2 3 3 2 3 2 3 3 2 2 3 3 3 3 3 2 2 2 2 2 3
3 3 3 2 1 2 2 3 2 2 2 2 3 3 3 3 3 3 3 3 2 2 2 2 2 2 3 2 2 2 2 2 3 3 2 2 3 3 2 1 2 3 3
2 2 2 2 2 1 2 3 2 2 2 3 4 3 3 4 4 4 3 2 2 3 2 1 2 2 2 3 2 1 2 2 2 2 2 3 3 3 1 2 2 3 4
2 2 3 2 1 2 3 3 2 2 3 2 2 2 3 3 3 3 2 2 2 2 1 1 1 1 1 2 2 1 1 2 2 2 2 2 4 3 2 2 3 4 3
2 2 3 2 1 2 4 3 2 3 1 1 2 2 2 2 2 2 2 2 2 2 1 1 1 1 1 2 2 2 1 1 1 2 2 2 3 2 2 1 2 2 2
1 1 2 2 1 1 3 3 2 1 2 2 1 1 1 1 1 2 2 2 2 2 1 1 1 1 1 2 3 2 2 1 0 1 2 2 2 2 1 2 2 2 1
1 1 2 2 1 1 0 1 1 2 3 2 2 2 2 1 1 1 2 2 2 2 1 1 1 1 1 1 1 1 1 2 1 1 2 3 3 2 2 3 2 1 0
0 1 2 2 0 0 1 0 0 2 2 2 2 2 2 2 2 1 1 1 1 2 2 2 1 1 1 2 1 1 0 0 0 1 2 2 2 2 2 2 2 2 2
1 1 1 2 1 1 1 1 1 2 2 2 1 1 2 2 2 2 1 2 2 2 2 2 2 0 1 2 2 2 2 3 4 3 2 1 1 1 1 1 2 2 2
Wind_Direction
191 174 163 157 146 136 137 132 122 122 122 113 117 113 121 114 75 81 82 94 103 107 107 101 87 84 86 82 77 79 59 30 27 51 17 360 8 27 25 21 25 26 24
169 171 162 148 150 155 154 145 142 143 142 136 140 144 145 147 139 91 87 104 114 113 114 117 115 104 95 75 65 78 70 25 40 87 71 10 352 354 2 4 22 18 25
179 180 167 161 158 161 164 161 156 149 144 128 110 94 74 65 60 66 52 91 125 113 110 120 122 115 111 115 103 102 102 77 6 71 122 122 240 318 338 352 5 6 23
178 176 173 173 175 178 174 159 158 151 145 138 132 134 132 145 198 174 157 133 127 118 118 125 129 131 127 134 146 108 117 116 55 352 44 146 162 147 331 334 342 351 2
179 177 181 183 180 172 167 163 159 150 148 148 149 143 130 146 135 125 138 136 159 145 141 142 146 150 146 151 132 106 112 130 142 158 99 59 59 121 142 289 321 341 331
179 179 181 172 166 156 154 152 156 155 152 149 150 149 148 146 134 141 161 177 216 224 178 164 168 172 173 176 178 163 141 137 130 145 149 150 149 176 149 194 284 315 313
169 173 170 168 164 160 159 157 154 156 159 157 159 161 161 163 168 171 178 173 183 222 226 190 183 182 191 189 176 162 172 171 163 181 188 178 187 175 157 152 204 296 305
168 174 178 176 171 169 167 163 161 158 163 167 173 170 164 166 178 184 185 185 198 215 210 197 199 203 194 184 170 162 197 180 201 221 204 182 218 166 163 162 156 36 321
174 176 178 176 173 171 174 173 169 166 173 173 169 171 172 166 178 195 196 196 204 212 195 191 194 205 191 183 167 177 200 182 220 235 234 222 234 207 177 163 167 162 208
174 175 177 179 177 177 176 173 173 178 180 174 175 176 184 178 181 180 197 206 207 202 184 190 196 197 189 182 171 178 199 172 248 238 239 261 242 227 200 180 174 171 175
178 180 182 182 176 172 171 174 178 175 175 178 182 180 188 187 184 188 201 206 197 188 192 202 201 198 196 191 186 206 198 198 239 253 233 261 263 241 231 180 156 174 163
176 174 172 169 169 173 177 181 185 185 186 185 183 187 191 189 189 204 213 205 197 201 201 199 200 206 209 204 198 212 213 212 227 242 241 261 259 266 245 199 205 206 195
156 153 158 170 178 183 187 192 194 197 194 182 181 190 196 194 200 210 214 207 198 201 196 182 198 216 217 216 217 206 214 218 223 224 222 239 210 243 244 230 223 225 222
155 155 167 186 188 188 190 191 200 196 190 184 187 195 205 206 205 202 197 201 195 192 196 203 211 216 216 220 225 208 208 219 230 229 226 227 209 221 225 229 234 219 213
154 170 180 193 192 185 193 195 198 194 184 181 191 202 203 200 194 192 194 200 197 208 207 204 216 220 216 223 208 191 204 212 227 242 237 234 229 235 231 234 216 195 192
187 190 184 184 194 194 192 191 192 194 181 184 200 201 190 187 191 194 191 191 201 210 204 204 208 214 234 244 205 182 202 213 222 239 249 247 240 256 255 253 219 184 183
190 195 197 198 204 203 193 196 202 194 182 193 200 195 189 194 201 196 184 196 209 199 203 210 208 224 251 244 203 190 188 213 229 234 245 261 270 265 251 262 259 244 241
181 201 205 203 205 197 185 187 178 171 180 193 203 193 187 193 190 176 186 207 206 202 209 216 219 226 257 242 209 197 200 216 231 233 231 238 259 264 244 247 268 269 266
190 194 192 182 173 179 172 144 135 146 166 194 198 194 182 183 179 183 198 203 193 203 211 202 212 225 263 265 231 188 203 231 245 248 244 241 242 276 278 220 252 280 287
161 164 157 129 124 173 145 136 151 159 203 213 206 196 183 178 189 200 202 199 187 197 201 206 222 223 253 278 262 194 192 218 252 268 266 262 263 267 259 201 219 258 270
113 126 123 127 156 156 132 137 155 199 228 221 200 191 187 182 186 188 177 166 169 167 174 188 236 240 282 307 307 273 198 202 227 252 269 275 278 272 270 242 229 256 266
90 110 120 119 121 130 133 146 200 225 207 151 149 169 178 177 158 158 162 160 160 160 175 190 267 305 304 338 335 341 305 218 203 245 266 276 289 285 302 283 285 302 323
96 94 122 105 51 87 129 158 222 196 141 124 139 155 142 143 144 147 152 143 143 154 173 171 213 289 317 329 340 335 331 324 254 270 318 334 340 334 330 337 345 350 20
101 115 115 101 47 13 112 178 202 168 143 148 164 162 151 135 114 123 137 137 146 153 161 173 215 280 324 327 324 315 306 310 319 338 2 18 18 19 14 12 357 342 338
232 135 133 136 179 8 35 10 107 119 133 144 152 158 158 149 131 117 126 147 164 162 164 184 189 197 250 295 340 39 354 253 107 79 48 35 20 13 13 7 354 352 359
185 138 132 130 123 100 59 356 75 111 124 143 158 172 168 160 149 138 87 37 64 82 109 105 110 202 351 352 5 14 30 63 87 90 70 48 30 12 4 357 353 355 344